• în România
  • Lista ţărilor
  • Pe 7 zile
  • Temperatura apei
  • Hartă satelitară
  • Meteo pe hartă
  • Widget-uri
  • user-avatar
    Intrare

    Meteo pe oră la Mayrhofen

    Astăzi, 16 August, Miercuri

    Timp Temperatura Precipitaţii Vânt Presiune Umiditate
    00:00 +12°C° 0,4 mm 1 m/s 622 mmHg 85%
    01:00 +11°C° 0 mm 1 m/s 622 mmHg 86%
    02:00 +11°C° 0,6 mm 1 m/s 622 mmHg 88%
    03:00 +11°C° 0,6 mm 1 m/s 622 mmHg 89%
    04:00 +10°C° 0,6 mm 1 m/s 622 mmHg 91%
    05:00 +11°C° 0,5 mm 1 m/s 622 mmHg 91%
    06:00 +12°C° 0,5 mm 1 m/s 623 mmHg 91%
    07:00 +12°C° 0 mm 1 m/s 623 mmHg 91%
    08:00 +14°C° 0,6 mm 1 m/s 624 mmHg 87%
    09:00 +15°C° 0,6 mm 1 m/s 624 mmHg 83%
    10:00 +16°C° 0,6 mm 1 m/s 624 mmHg 78%
    11:00 +18°C° 0,7 mm 1 m/s 625 mmHg 74%
    12:00 +19°C° 0,7 mm 1 m/s 625 mmHg 69%
    13:00 +19°C° 0,7 mm 2 m/s 625 mmHg 64%
    14:00 +19°C° 1 mm 2 m/s 625 mmHg 65%
    15:00 +19°C° 1 mm 2 m/s 624 mmHg 65%
    16:00 +18°C° 1 mm 2 m/s 624 mmHg 65%
    17:00 +18°C° 0,6 mm 1 m/s 624 mmHg 72%
    18:00 +15°C° 0,6 mm 1 m/s 623 mmHg 79%
    19:00 +14°C° 0,6 mm 1 m/s 623 mmHg 85%
    20:00 +13°C° 0,1 mm 1 m/s 622 mmHg 88%
    21:00 +12°C° 0,1 mm 1 m/s 622 mmHg 90%
    22:00 +11°C° 0,1 mm 1 m/s 622 mmHg 92%
    23:00 +11°C° 0 mm 1 m/s 622 mmHg 91%

    Mâine, 17 August, Joi

    Timp Temperatura Precipitaţii Vânt Presiune Umiditate
    00:00 +11°C° 0 mm 1 m/s 622 mmHg 90%
    01:00 +11°C° 0 mm 1 m/s 622 mmHg 90%
    02:00 +10°C° 0 mm 1 m/s 622 mmHg 90%
    03:00 +10°C° 0 mm 1 m/s 621 mmHg 90%
    04:00 +9°C° 0 mm 1 m/s 621 mmHg 89%
    05:00 +11°C° 0 mm 1 m/s 622 mmHg 86%
    06:00 +11°C° 0 mm 0 m/s 622 mmHg 82%
    07:00 +12°C° 0 mm 0 m/s 623 mmHg 78%
    08:00 +15°C° 0 mm 0 m/s 624 mmHg 69%
    09:00 +19°C° 0 mm 1 m/s 624 mmHg 60%
    10:00 +21°C° 0 mm 1 m/s 625 mmHg 51%
    11:00 +22°C° 0,1 mm 1 m/s 625 mmHg 49%
    12:00 +22°C° 0,1 mm 1 m/s 625 mmHg 47%
    13:00 +23°C° 0,1 mm 1 m/s 625 mmHg 45%
    14:00 +22°C° 0,1 mm 1 m/s 625 mmHg 49%
    15:00 +22°C° 0,1 mm 1 m/s 624 mmHg 53%
    16:00 +21°C° 0,1 mm 1 m/s 624 mmHg 57%
    17:00 +19°C° 0,2 mm 1 m/s 623 mmHg 66%
    18:00 +18°C° 0,2 mm 1 m/s 623 mmHg 75%
    19:00 +14°C° 0,2 mm 0 m/s 622 mmHg 83%
    20:00 +14°C° 0 mm 1 m/s 622 mmHg 86%
    21:00 +13°C° 0 mm 1 m/s 622 mmHg 88%
    22:00 +12°C° 0 mm 1 m/s 622 mmHg 90%
    23:00 +12°C° 0 mm 1 m/s 622 mmHg 90%

    Poimâine, 18 August, Vineri

    Timp Temperatura Precipitaţii Vânt Presiune Umiditate
    00:00 +11°C° 0 mm 1 m/s 621 mmHg 90%
    01:00 +11°C° 0 mm 1 m/s 621 mmHg 90%
    02:00 +11°C° 0 mm 1 m/s 621 mmHg 90%
    03:00 +11°C° 0 mm 1 m/s 621 mmHg 90%
    04:00 +11°C° 0 mm 1 m/s 621 mmHg 90%
    05:00 +12°C° 0 mm 1 m/s 621 mmHg 88%
    06:00 +13°C° 0 mm 1 m/s 622 mmHg 86%
    07:00 +14°C° 0 mm 1 m/s 622 mmHg 83%
    08:00 +18°C° 0 mm 1 m/s 623 mmHg 74%
    09:00 +20°C° 0 mm 1 m/s 623 mmHg 65%
    10:00 +21°C° 0 mm 2 m/s 624 mmHg 56%
    11:00 +23°C° 0,1 mm 2 m/s 624 mmHg 54%
    12:00 +23°C° 0,1 mm 2 m/s 624 mmHg 52%
    13:00 +24°C° 0,1 mm 2 m/s 624 mmHg 51%
    14:00 +23°C° 0,6 mm 2 m/s 623 mmHg 56%
    15:00 +21°C° 0,6 mm 2 m/s 623 mmHg 61%
    16:00 +20°C° 0,6 mm 2 m/s 622 mmHg 66%
    17:00 +19°C° 1,2 mm 2 m/s 622 mmHg 73%
    18:00 +17°C° 1,2 mm 2 m/s 621 mmHg 80%
    19:00 +16°C° 1,2 mm 1 m/s 620 mmHg 86%
    20:00 +15°C° 1 mm 2 m/s 620 mmHg 89%
    21:00 +14°C° 1 mm 2 m/s 620 mmHg 92%
    22:00 +13°C° 1 mm 2 m/s 620 mmHg 95%
    23:00 +13°C° 1,2 mm 2 m/s 620 mmHg 96%

    19 August, Sâmbătă

    Timp Temperatura Precipitaţii Vânt Presiune Umiditate
    00:00 +12°C° 1,2 mm 1 m/s 620 mmHg 97%
    01:00 +12°C° 1,2 mm 1 m/s 620 mmHg 97%
    02:00 +10°C° 3,7 mm 2 m/s 620 mmHg 98%
    03:00 +10°C° 3,7 mm 2 m/s 620 mmHg 98%
    04:00 +9°C° 3,7 mm 2 m/s 620 mmHg 98%
    05:00 +9°C° 4,3 mm 2 m/s 620 mmHg 97%
    06:00 +8°C° 4,3 mm 2 m/s 619 mmHg 97%
    07:00 +7°C° 4,3 mm 2 m/s 619 mmHg 96%
    08:00 +8°C° 0,5 mm 2 m/s 620 mmHg 92%
    09:00 +9°C° 0,5 mm 2 m/s 620 mmHg 88%
    10:00 +11°C° 0,5 mm 1 m/s 620 mmHg 84%
    11:00 +12°C° 0,2 mm 2 m/s 621 mmHg 78%
    12:00 +13°C° 0,2 mm 2 m/s 621 mmHg 72%
    13:00 +15°C° 0,2 mm 2 m/s 622 mmHg 66%
    14:00 +14°C° 1,4 mm 2 m/s 621 mmHg 72%
    15:00 +13°C° 1,4 mm 2 m/s 621 mmHg 78%
    16:00 +12°C° 1,4 mm 2 m/s 620 mmHg 85%
    17:00 +10°C° 1,3 mm 2 m/s 620 mmHg 88%
    18:00 +9°C° 1,3 mm 2 m/s 620 mmHg 91%
    19:00 +8°C° 1,3 mm 2 m/s 620 mmHg 94%
    20:00 +7°C° 0,2 mm 2 m/s 620 mmHg 94%
    21:00 +7°C° 0,2 mm 2 m/s 621 mmHg 95%
    22:00 +6°C° 0,2 mm 2 m/s 621 mmHg 95%
    23:00 +6°C° 0,1 mm 2 m/s 621 mmHg 95%

    20 August, Duminică

    Timp Temperatura Precipitaţii Vânt Presiune Umiditate
    00:00 +6°C° 0,1 mm 2 m/s 621 mmHg 95%
    01:00 +5°C° 0,1 mm 2 m/s 621 mmHg 95%
    02:00 +5°C° 0,1 mm 2 m/s 621 mmHg 95%
    03:00 +5°C° 0,1 mm 2 m/s 621 mmHg 95%
    04:00 +5°C° 0,1 mm 2 m/s 621 mmHg 95%
    05:00 +5°C° 0 mm 2 m/s 621 mmHg 93%
    06:00 +5°C° 0 mm 2 m/s 622 mmHg 92%
    07:00 +6°C° 0 mm 2 m/s 622 mmHg 90%
    08:00 +7°C° 0 mm 2 m/s 623 mmHg 80%
    09:00 +9°C° 0 mm 2 m/s 623 mmHg 69%
    10:00 +12°C° 0 mm 2 m/s 624 mmHg 58%
    11:00 +12°C° 0 mm 2 m/s 624 mmHg 54%
    12:00 +13°C° 0 mm 2 m/s 624 mmHg 49%
    13:00 +13°C° 0 mm 3 m/s 624 mmHg 44%
    14:00 +13°C° 0 mm 3 m/s 624 mmHg 45%
    15:00 +13°C° 0 mm 3 m/s 624 mmHg 47%
    16:00 +13°C° 0 mm 3 m/s 624 mmHg 48%
    17:00 +12°C° 0 mm 2 m/s 623 mmHg 59%
    18:00 +9°C° 0 mm 2 m/s 623 mmHg 69%
    19:00 +8°C° 0 mm 2 m/s 622 mmHg 79%
    20:00 +6°C° 0 mm 2 m/s 622 mmHg 83%
    21:00 +6°C° 0 mm 1 m/s 622 mmHg 87%
    22:00 +5°C° 0 mm 1 m/s 622 mmHg 91%
    23:00 +5°C° 0 mm 1 m/s 622 mmHg 90%

    21 August, Luni

    Timp Temperatura Precipitaţii Vânt Presiune Umiditate
    00:00 +4°C° 0 mm 1 m/s 621 mmHg 89%
    01:00 +4°C° 0 mm 1 m/s 621 mmHg 87%
    02:00 +4°C° 0 mm 1 m/s 621 mmHg 83%
    03:00 +4°C° 0 mm 1 m/s 621 mmHg 79%
    04:00 +4°C° 0 mm 1 m/s 621 mmHg 75%
    05:00 +5°C° 0 mm 1 m/s 621 mmHg 68%
    06:00 +6°C° 0 mm 2 m/s 622 mmHg 61%
    07:00 +7°C° 0 mm 2 m/s 623 mmHg 54%
    08:00 +10°C° 0 mm 2 m/s 624 mmHg 45%
    09:00 +14°C° 0 mm 2 m/s 624 mmHg 36%
    10:00 +17°C° 0 mm 2 m/s 625 mmHg 27%
    11:00 +18°C° 0 mm 2 m/s 625 mmHg 27%
    12:00 +19°C° 0 mm 2 m/s 625 mmHg 27%
    13:00 +19°C° 0 mm 2 m/s 625 mmHg 26%
    14:00 +19°C° 0 mm 2 m/s 625 mmHg 29%
    15:00 +19°C° 0 mm 2 m/s 625 mmHg 32%
    16:00 +19°C° 0 mm 2 m/s 624 mmHg 35%
    17:00 +16°C° 0 mm 2 m/s 623 mmHg 46%
    18:00 +14°C° 0 mm 1 m/s 622 mmHg 57%
    19:00 +11°C° 0 mm 1 m/s 621 mmHg 68%
    20:00 +10°C° 0 mm 1 m/s 621 mmHg 70%
    21:00 +9°C° 0 mm 1 m/s 621 mmHg 72%
    22:00 +8°C° 0 mm 1 m/s 621 mmHg 73%
    23:00 +8°C° 0 mm 1 m/s 620 mmHg 73%
    Arată mai mult